Regional Weather Roundup
Issued by NWS

Home | Current Version | Previous Version | Graphics & Text | Print | Product List | Glossary On
Versions: 1 2 3 4 5 6 7 8 9 10 11 12 13 14 15 16 17 18 19 20 21 22 23 24 25 26 27 28 29 30 31 32 33 34 35 36 37 38 39 40 41 42 43 44 45 46 47 48 49 50
000
ASUS43 KLSX 201410
RWRMO

WEATHER SUMMARY FOR MISSOURI
NATIONAL WEATHER SERVICE SPRINGFIELD MO
900 AM CDT SUN MAY 20 2018

NOTE: "FAIR" INDICATES FEW OR NO CLOUDS BELOW 12,000 FEET WITH NO
       SIGNIFICANT WEATHER AND/OR OBSTRUCTIONS TO VISIBILITY.
       CURRENT SKY AND/OR WEATHER CONDITIONS ARE NOT AVAILABLE FOR
       CHILLICOTHE AND FARMINGTON.

MOZ001>031-035>038-043-044-053-054-201500-
...NORTHERN AND WESTERN MISSOURI...

CITY           SKY/WX    TMP DP  RH WIND       PRES   REMARKS
KANSAS CTY INT LGT RAIN  64  62  93 S23G33    30.06F FOG
KANSAS C DTWN  RAIN      66  61  84 SW9       30.09R
LEE`S SUMMIT   RAIN      64  64 100 SW8       30.10R FOG
ST JOSEPH      CLOUDY    64  61  90 SE7       30.08R
CHILLICOTHE      N/A     66  64  93 VRB3      30.09R
KIRKSVILLE     PTSUNNY   69  65  86 CALM      30.08R

$$
MOZ066>068-077>081-088>096-101>105-201500-
...SOUTHWEST MISSOURI...

CITY           SKY/WX    TMP DP  RH WIND       PRES   REMARKS
SPRINGFIELD    TSTM      63  60  90 N10       30.11S FOG
JOPLIN         CLOUDY    66  64  93 CALM      30.06F
BRANSON        CLOUDY    66  61  82 NW17G23   30.15R

$$
MOZ032>034-039>042-045>050-055>058-069>072-201500-
...CENTRAL MISSOURI...

CITY           SKY/WX    TMP DP  RH WIND       PRES   REMARKS
COLUMBIA       LGT RAIN  65  62  90 SW10      30.11R
JEFFERSON CITY TSTM      65  63  93 E10       30.09R FOG
ROLLA          CLOUDY    66  63  90 E8        30.08R
SEDALIA        RAIN      65  65 100 SW14      30.17R FOG
WHITEMAN AFB   TSTM      64  64  98 S9        30.11R
WARRENSBURG    CLOUDY    63  61  94 S9        30.13R

$$
MOZ051-052-059>065-201500-
...EAST CENTRAL MISSOURI...

CITY           SKY/WX    TMP DP  RH WIND       PRES   REMARKS
ST LOUIS INTL  PTSUNNY   68  65  90 S7        30.10R
SPIRIT OF STL  CLOUDY    68  65  90 SE7       30.07R
ST CHARLES     CLOUDY    67  65  93 S7        30.08R

$$
MOZ072>076-082>087-097>100-106>115-201500-
...SOUTH CENTRAL AND SOUTHEAST MISSOURI...

CITY           SKY/WX    TMP DP  RH WIND       PRES   REMARKS
CAPE GIRARDEAU FAIR      72  65  78 SE5       30.09S
FARMINGTON     MOSUNNY   72  64  76 CALM      30.11S
POPLAR BLUFF   FAIR      76  68  76 E5        30.08R
WEST PLAINS    PTSUNNY   72  66  81 CALM      30.11R

$$




USA.gov is the U.S. government's official web portal to all federal, state and local government web resources and services.